SCP
0 0 0 0 0 0 0 0 0 0 0 0 0 0 0 0 0 0 0 0 0 0 0 0 0 0 0 1 1 0 1 1 2 1 1 0 0 0 0 0 0 0 0 0
0 0 0 0 0 0 0 0 0 0 0 0 0 0 0 0 0 0 0 0 0 0 0 0 0 0 0 1 1 1 1 1 1 1 1 1 0 0 0 0 0 0 0 0
0 0 0 0 0 0 0 0 0 0 0 0 0 0 0 0 0 0 0 0 0 0 0 0 0 0 0 1 1 1 1 1 1 1 1 1 0 0 0 0 0 0 0 0
0 0 0 0 0 0 0 0 0 0 0 0 0 0 0 0 0 0 0 0 0 0 0 0 0 0 0 0 1 1 1 1 1 1 1 1 1 0 0 0 0 0 1 1
0 0 0 0 0 0 0 0 0 0 0 0 0 0 0 0 0 0 0 0 0 0 0 0 0 0 0 0 1 1 1 1 1 1 1 1 1 1 0 0 0 0 1 1
0 0 0 0 0 0 0 0 0 0 0 0 0 0 0 0 0 0 0 0 0 0 0 0 0 0 0 0 0 1 1 1 1 1 1 1 1 1 0 0 0 0 1 1
0 0 0 0 0 0 0 0 0 0 0 0 0 0 0 0 0 0 0 0 0 0 0 0 0 0 0 0 0 1 1 1 1 1 1 1 1 1 0 0 0 0 1 1
0 0 0 0 0 0 0 0 0 0 0 0 0 0 0 0 0 0 0 0 0 0 0 0 0 0 0 0 0 0 1 1 1 1 1 1 1 1 0 0 0 0 1 1
0 0 0 0 0 0 0 0 0 0 0 0 0 0 0 0 0 0 0 0 0 0 0 0 0 0 0 0 0 0 0 1 1 1 1 1 1 1 0 0 0 0 0 0
0 0 0 0 0 0 0 0 0 0 0 0 0 0 0 0 0 0 0 0 0 0 0 0 0 0 0 0 0 0 0 0 0 1 1 1 1 1 0 0 0 0 0 0
0 0 0 0 0 0 0 0 0 0 0 0 0 0 0 0 0 0 0 0 0 0 0 0 0 0 0 0 0 0 0 0 0 0 1 1 1 0 0 0 0 0 0 0
0 0 0 0 0 0 0 0 0 0 0 0 0 0 0 0 0 0 0 0 0 0 0 0 0 0 0 0 0 0 0 0 0 0 0 0 0 0 0 0 0 0 0 0
0 0 0 0 0 0 0 0 0 0 0 0 0 0 0 0 0 0 0 0 0 0 0 0 0 0 0 0 0 0 0 0 0 0 0 0 0 0 0 0 0 0 0 0
0 0 0 0 0 0 0 0 0 0 0 0 0 0 0 0 0 0 0 0 0 0 0 0 0 0 0 0 0 0 0 0 0 0 0 0 0 0 0 0 0 0 0 0
0 0 0 0 0 0 0 0 0 0 0 0 0 0 0 0 0 0 0 0 0 0 0 0 0 0 0 0 0 0 0 0 0 0 0 0 0 0 0 0 0 0 0 0
0 0 0 0 0 0 0 0 0 0 0 0 0 0 0 0 0 0 0 0 0 0 0 0 0 0 0 0 0 0 0 0 0 0 0 0 0 0 0 0 0 0 0 0
0 0 0 0 0 0 0 0 0 0 0 0 0 0 0 0 0 0 0 0 0 0 0 0 0 0 0 0 0 0 0 0 0 0 0 0 0 0 0 0 0 0 0 0
0 0 0 0 0 0 0 0 0 0 0 0 0 0 0 0 0 0 0 0 0 0 0 0 0 0 0 0 0 0 0 0 0 0 0 0 0 0 0 0 0 0 0 0
0 0 0 0 0 0 0 0 0 0 0 0 0 0 0 0 0 0 0 0 0 0 0 0 0 0 0 0 0 0 0 0 0 0 0 0 0 0 0 0 0 0 0 0
0 0 0 0 0 0 0 0 0 0 0 0 0 0 0 0 0 0 0 0 0 0 0 0 0 0 0 0 0 0 0 0 0 0 0 0 0 0 0 0 0 0 0 0
0 0 0 0 0 0 0 0 0 0 0 0 0 0 0 0 0 0 0 0 0 0 0 0 0 0 0 0 0 0 0 0 0 0 0 0 0 0 0 0 0 0 0 0
0 0 0 0 0 0 0 0 0 0 0 0 0 0 0 0 0 0 0 0 0 0 0 0 0 0 0 0 0 0 0 0 0 0 0 0 0 0 0 0 0 0 0 0
0 0 0 0 0 0 0 0 0 0 0 0 0 0 0 0 0 0 0 0 0 0 0 0 0 0 0 0 0 0 0 0 0 0 0 0 0 0 0 0 0 0 0 0
0 0 0 0 0 0 0 0 0 0 0 0 0 0 0 0 0 0 0 0 0 0 0 0 0 0 0 0 0 0 0 0 0 0 0 0 0 0 0 0 0 0 0 0
0 0 0 0 0 0 0 0 0 0 0 0 0 0 0 0 0 0 0 0 0 0 0 0 0 0 0 0 0 0 0 0 0 0 0 0 0 0 0 0 0 0 0 0
0 0 0 0 0 0 0 0 0 0 0 0 0 0 0 0 0 0 0 0 0 0 0 0 0 0 0 0 0 0 0 0 0 0 0 0 0 0 0 0 0 0 0 0
Wind_Speed
1 2 5 8 8 4 3 3 4 4 2 2 6 10 11 6 4 4 4 4 4 5 4 2 2 1 1 1 2 2 2 2 2 2 2 2 2 1 1 1 2 2 2 2
2 5 7 3 4 4 3 4 5 4 1 2 5 10 9 5 5 5 5 6 6 5 3 2 1 1 2 2 2 2 3 2 3 3 2 2 2 2 2 2 2 2 2 2
7 4 3 4 3 4 5 7 6 4 3 2 4 8 6 4 3 4 4 5 5 5 5 4 2 2 2 2 3 3 3 3 2 2 1 1 1 1 1 1 2 2 2 2
5 3 2 3 4 6 7 4 4 2 1 3 0 7 7 4 4 4 5 4 5 5 4 3 2 2 2 3 3 3 3 2 2 3 3 3 2 2 3 2 2 2 2 2
4 2 3 5 6 6 3 2 2 2 2 3 2 4 9 1 5 6 6 6 6 4 3 3 2 2 2 2 2 2 2 2 2 3 3 4 3 2 1 0 1 2 2 2
4 2 3 4 2 4 3 3 3 3 2 5 6 5 10 5 6 5 4 5 4 3 2 1 1 1 1 1 1 0 1 1 1 2 2 3 3 2 1 1 2 1 1 1
3 3 2 2 2 2 3 4 2 3 1 7 3 5 11 5 5 5 5 4 2 1 1 1 1 1 2 2 2 1 0 1 0 1 2 2 3 3 4 3 3 2 1 2
4 5 5 4 5 6 6 6 7 6 6 5 2 9 8 4 3 2 2 1 1 1 1 1 1 1 2 2 2 2 1 1 1 1 2 1 2 2 2 2 2 3 2 3
6 5 1 2 2 6 5 5 4 4 0 3 7 8 8 2 2 2 1 1 1 1 1 1 2 2 2 2 3 2 2 1 1 1 1 1 1 1 2 2 1 1 1 2
4 3 2 1 1 1 3 5 4 5 5 6 7 6 6 4 5 3 2 2 1 0 1 2 2 2 3 2 3 3 2 2 2 2 1 1 1 1 1 1 1 2 2 2
2 3 2 1 6 7 5 4 4 4 4 6 6 8 5 6 6 5 4 2 2 1 0 0 1 2 2 3 3 3 3 3 3 3 2 2 2 1 1 1 2 2 2 2
2 3 3 6 3 3 5 6 7 6 6 5 5 9 1 3 3 3 3 1 1 1 1 0 1 2 3 3 3 3 3 3 3 2 2 2 2 2 2 2 2 1 2 2
3 3 1 3 1 1 3 4 5 3 3 5 6 9 0 0 1 2 2 1 0 1 1 1 1 2 2 3 3 3 3 3 3 2 2 2 3 3 2 3 2 2 2 2
2 4 7 9 5 4 5 6 6 6 5 7 12 11 5 4 3 2 2 2 1 1 1 1 1 2 2 2 3 3 3 3 3 3 2 2 3 3 3 3 2 2 2 2
2 5 6 7 5 4 7 8 10 11 11 11 11 11 10 8 6 4 3 2 2 1 1 0 1 2 2 3 3 3 3 3 3 3 3 3 3 3 2 3 3 2 2 2
3 4 3 6 6 6 10 11 12 13 11 12 12 14 7 4 2 3 4 4 3 3 2 1 1 1 2 3 3 3 3 3 3 2 3 3 3 3 3 3 3 3 3 3
4 4 3 6 4 3 12 13 14 11 10 10 14 12 2 3 5 6 5 5 5 4 2 2 1 1 2 2 2 3 3 3 2 2 3 4 4 3 4 3 3 3 3 3
6 5 3 2 1 11 10 4 10 11 10 9 8 5 5 5 3 2 3 4 3 2 2 2 1 1 2 2 2 2 2 2 2 3 3 4 4 4 4 3 3 3 3 3
7 7 4 3 6 10 8 3 5 7 8 6 8 6 3 1 1 2 1 2 2 2 1 1 1 1 1 2 2 2 2 2 2 3 4 4 4 4 4 4 4 4 3 3
3 5 5 5 5 10 6 2 2 3 6 2 4 5 4 3 3 4 1 2 1 1 1 1 1 1 1 2 2 2 2 3 3 4 4 4 4 4 4 4 4 4 3 4
3 4 7 7 8 9 5 2 2 6 6 0 3 4 4 4 3 1 2 2 2 2 2 2 2 1 1 2 2 2 3 3 4 4 4 4 4 4 4 4 3 4 3 3
7 6 6 5 7 10 1 2 5 4 2 1 0 1 2 1 1 2 2 2 2 2 2 2 2 2 2 2 2 2 3 4 4 4 4 4 4 4 3 3 4 3 3 3
7 7 5 7 6 3 1 2 2 2 1 2 1 1 2 1 1 1 1 1 1 2 2 2 2 3 3 3 2 2 4 5 5 4 4 4 4 4 3 3 3 3 3 2
4 2 4 4 5 4 2 3 3 2 2 2 1 1 1 1 1 0 0 1 1 2 2 2 2 3 4 4 4 3 5 5 4 4 5 4 4 4 3 3 3 2 3 3
4 3 3 4 4 3 3 3 2 2 2 3 3 2 1 1 1 0 0 0 0 1 2 2 2 3 4 4 4 5 5 4 4 4 4 4 4 4 4 3 3 4 3 4
3 4 5 6 3 3 4 2 1 1 2 2 2 2 2 1 0 0 0 0 0 1 1 2 2 3 4 4 4 5 4 4 3 4 4 4 3 3 3 4 5 6 6 7
Wind_Direction
106 115 207 213 205 207 185 207 244 254 260 235 254 268 277 278 267 266 267 265 264 265 272 262 234 219 204 199 194 195 191 191 169 175 176 189 210 214 220 225 221 201 195 191
83 230 228 204 191 209 223 238 255 280 284 242 281 281 277 258 243 243 248 254 256 266 289 283 263 217 214 216 213 208 207 196 191 196 192 194 189 203 210 215 221 211 201 198
197 228 195 176 190 206 228 221 230 248 327 324 318 296 276 266 251 259 248 245 254 254 262 262 241 228 224 229 223 221 219 210 201 183 145 110 105 96 179 230 234 236 219 204
228 252 181 182 208 194 238 222 213 224 297 288 17 289 281 260 274 264 262 261 262 266 262 259 249 239 231 235 229 225 217 204 191 175 167 168 190 212 220 226 228 228 215 213
230 201 190 209 216 190 214 142 162 189 197 284 243 249 280 271 270 262 253 251 254 256 252 257 257 251 257 244 226 228 214 193 183 184 190 192 206 220 224 235 216 218 216 220
236 220 202 208 199 179 147 84 67 63 91 264 226 205 274 228 231 251 252 253 258 269 272 284 327 2 342 344 330 276 202 202 184 188 197 200 206 206 203 229 232 236 240 229
263 237 220 171 133 135 137 111 33 345 307 251 197 213 253 241 230 227 245 256 266 276 309 328 347 355 356 358 350 342 340 292 256 207 217 219 218 210 214 219 220 229 241 250
206 252 209 190 180 176 187 169 175 206 232 273 238 236 253 246 248 252 253 248 284 310 344 345 348 13 10 5 4 360 338 306 295 245 247 242 228 218 231 231 228 226 233 236
194 237 187 190 191 158 168 200 190 152 114 277 261 273 292 252 265 251 245 248 264 274 1 13 13 22 15 7 4 0 356 347 334 314 299 280 238 229 237 239 234 237 250 261
166 234 260 234 118 221 178 160 140 164 189 246 271 256 245 230 237 245 246 238 255 341 28 14 16 14 6 3 2 8 12 4 355 355 345 325 291 260 248 239 244 254 259 251
165 183 266 190 197 191 165 176 180 172 183 190 251 260 223 209 205 208 225 227 225 207 230 353 8 10 13 11 10 8 5 8 4 357 356 354 327 314 305 265 257 256 259 250
181 154 239 240 229 212 197 196 175 184 222 211 231 261 255 213 208 189 206 208 160 168 155 61 9 10 14 11 7 4 358 357 351 351 2 360 352 350 337 309 294 285 269 259
165 161 250 314 285 219 230 214 201 189 174 198 216 256 315 121 181 182 186 197 192 172 138 63 26 10 2 358 357 355 352 345 346 355 7 4 360 352 334 320 316 303 282 275
174 194 208 221 230 190 224 227 203 187 209 225 230 246 260 256 245 238 227 214 209 207 161 80 4 349 350 350 350 350 344 345 349 356 1 355 344 334 323 322 323 310 297 286
160 222 236 258 270 235 233 227 209 213 219 226 244 240 246 237 224 220 212 200 190 196 184 259 325 327 340 347 349 350 342 344 350 357 355 337 332 334 337 335 331 325 318 306
180 221 239 265 259 244 253 241 223 227 231 241 257 261 249 238 203 215 221 209 210 211 213 238 277 315 331 334 337 342 339 338 351 356 346 341 340 341 341 332 332 332 325 318
189 182 212 259 274 274 251 226 213 218 217 211 237 250 209 224 216 218 216 204 209 213 217 228 243 263 300 311 322 323 323 338 354 352 348 347 343 338 332 331 335 327 318 318
190 196 208 233 185 238 246 194 202 216 234 229 247 251 216 223 229 224 201 196 207 209 210 225 246 282 309 319 328 331 342 352 350 348 344 343 341 335 331 332 329 322 316 307
203 196 199 190 232 266 279 221 186 201 247 230 234 243 246 228 3 289 223 184 195 200 207 228 259 279 315 331 333 357 358 357 355 343 336 334 332 329 329 325 318 314 310 305
202 197 201 201 214 240 256 228 222 156 257 237 206 219 207 162 227 253 174 131 129 52 48 43 31 21 9 344 356 16 357 358 341 327 322 323 326 324 320 315 310 310 305 301
187 201 210 217 233 256 272 272 133 182 247 251 193 212 198 205 228 174 106 87 69 53 45 48 43 28 356 350 19 14 355 333 319 320 322 325 325 318 311 311 310 311 307 306
189 191 204 195 219 250 289 129 189 229 328 8 166 192 182 171 100 104 98 88 66 53 42 42 36 11 2 8 25 359 337 327 328 326 327 325 322 318 319 318 316 315 311 309
206 205 201 202 222 276 196 211 279 325 304 317 340 355 133 139 164 113 99 89 63 50 35 30 34 12 2 7 14 340 327 335 333 331 326 321 321 320 324 320 317 318 317 308
242 240 212 237 261 270 286 304 317 323 315 336 358 16 103 155 171 140 121 83 57 37 24 19 19 3 347 351 355 344 335 335 331 326 322 323 324 324 327 318 308 304 304 302
230 201 218 245 274 299 297 287 297 348 9 9 8 22 99 139 154 169 228 261 20 14 16 9 354 336 329 337 340 341 338 333 325 321 320 321 322 320 321 317 302 298 286 282
218 204 207 237 240 237 267 303 353 1 346 353 9 7 21 94 180 316 296 299 353 357 1 347 338 327 324 328 326 329 330 327 324 321 322 321 319 317 318 317 317 311 305 310